Location: Newark
(34.9500°N, 139.9667°E)
Time: 08:11:31
(UTC+00:00)

Altair - Pass Details

Date: 10 December 2019
Orbit: 1502 x 1682 km, 47.2° (Epoch: 28 January)

Event Time Altitude Azimuth Distance (km) Brightness Sun altitude
Exits shadow 19:28:46 38° 250° (WSW) 2,151 7.8 -25.6°
Maximum altitude 19:30:19 40° 228° (SW) 2,079 7.9 -25.3°
Drops below altitude 10° 19:38:44 10° 162° (SSE) 3,689 9.8 -23.6°
Sets 19:42:02 0° 155° (SSE) 4,690 10.6 -22.9°
